contact:dominique.lefevre@mio.osupytheas.fr, maurice.libes@osupytheas.fr, didier.mallarino@osupytheas.fr
Project:EMSO http://www.emso-fr.org/EMSO-France
Depth: 2436.0 m
Title:EMSO Ligure Ouest : Data MII capteur CSTAR
DateTime,Latitude,Longitude,Instrument_Serial,Reference_Counts,Signal_Counts,Corrected_Signal_raw_counts,Calculated_Beam_c_inverse_meters,Internal_thermistor_counts
DateTime,Latitude,Longitude,Instrument_Serial,Reference_Counts,Signal_Counts,Corrected_Signal_raw_counts,Calculated_Beam_c_inverse_meters,Internal_thermistor_counts
2023-01-15T00:01:46,42.805,6.029,CST-1368DR,4417,4873,11727,01.146,551
2023-01-15T00:04:47,42.805,6.029,CST-1368DR,4417,4872,11723,01.147,551
2023-01-15T00:07:49,42.805,6.029,CST-1368DR,4417,4874,11727,01.146,551
2023-01-15T00:10:50,42.805,6.029,CST-1368DR,4417,4874,11728,01.145,551
2023-01-15T00:13:52,42.805,6.029,CST-1368DR,4417,4867,11712,01.151,551
2023-01-15T00:16:54,42.805,6.029,CST-1368DR,4417,4867,11712,01.151,551
2023-01-15T00:19:55,42.805,6.029,CST-1368DR,4417,4871,11721,01.148,551
2023-01-15T00:22:57,42.805,6.029,CST-1368DR,4417,4870,11719,01.148,551
2023-01-15T00:25:58,42.805,6.029,CST-1368DR,4417,4869,11716,01.149,551
2023-01-15T00:29:00,42.805,6.029,CST-1368DR,4417,4873,11727,01.146,551
2023-01-15T00:32:01,42.805,6.029,CST-1368DR,4417,4873,11726,01.146,551
2023-01-15T00:35:03,42.805,6.029,CST-1368DR,4417,4871,11720,01.148,551
2023-01-15T00:38:05,42.805,6.029,CST-1368DR,4417,4870,11719,01.148,551
2023-01-15T00:41:06,42.805,6.029,CST-1368DR,4417,4872,11723,01.147,551
2023-01-15T00:44:08,42.805,6.029,CST-1368DR,4417,4872,11723,01.147,551
2023-01-15T00:47:09,42.805,6.029,CST-1368DR,4417,4872,11723,01.147,551
2023-01-15T00:50:11,42.805,6.029,CST-1368DR,4417,4873,11727,01.146,551
2023-01-15T00:53:13,42.805,6.029,CST-1368DR,4417,4872,11724,01.147,551
2023-01-15T00:56:14,42.805,6.029,CST-1368DR,4417,4869,11716,01.149,551
2023-01-15T00:59:16,42.805,6.029,CST-1368DR,4417,4869,11716,01.149,551
2023-01-15T01:02:17,42.805,6.029,CST-1368DR,4417,4869,11716,01.149,551
2023-01-15T01:05:19,42.805,6.029,CST-1368DR,4417,4869,11717,01.149,551
2023-01-15T01:08:21,42.805,6.029,CST-1368DR,4417,4871,11722,01.147,551
2023-01-15T01:11:22,42.805,6.029,CST-1368DR,4417,4871,11720,01.148,551
2023-01-15T01:14:24,42.805,6.029,CST-1368DR,4417,4872,11723,01.147,551
2023-01-15T01:17:25,42.805,6.029,CST-1368DR,4417,4870,11719,01.148,551
2023-01-15T01:20:27,42.805,6.029,CST-1368DR,4417,4872,11723,01.147,551
2023-01-15T01:23:28,42.805,6.029,CST-1368DR,4417,4871,11722,01.147,551
2023-01-15T01:26:30,42.805,6.029,CST-1368DR,4417,4872,11723,01.147,551
2023-01-15T01:29:32,42.805,6.029,CST-1368DR,4417,4871,11720,01.148,551
2023-01-15T01:32:33,42.805,6.029,CST-1368DR,4417,4874,11727,01.146,551
2023-01-15T01:35:35,42.805,6.029,CST-1368DR,4417,4872,11724,01.147,551
2023-01-15T01:38:36,42.805,6.029,CST-1368DR,4417,4872,11723,01.147,551
2023-01-15T01:41:38,42.805,6.029,CST-1368DR,4417,4871,11720,01.148,551
2023-01-15T01:44:40,42.805,6.029,CST-1368DR,4417,4874,11727,01.146,551
2023-01-15T01:47:41,42.805,6.029,CST-1368DR,4417,4869,11716,01.149,551
2023-01-15T01:50:43,42.805,6.029,CST-1368DR,4417,4870,11719,01.148,551
2023-01-15T01:53:44,42.805,6.029,CST-1368DR,4417,4872,11724,01.147,551
2023-01-15T01:56:46,42.805,6.029,CST-1368DR,4417,4870,11719,01.148,551
2023-01-15T01:59:47,42.805,6.029,CST-1368DR,4417,4871,11721,01.148,551
2023-01-15T02:02:49,42.805,6.029,CST-1368DR,4417,4869,11717,01.149,551
2023-01-15T02:05:51,42.805,6.029,CST-1368DR,4417,4868,11714,01.150,551
2023-01-15T02:08:52,42.805,6.029,CST-1368DR,4417,4871,11720,01.148,551
2023-01-15T02:11:54,42.805,6.029,CST-1368DR,4417,4870,11719,01.148,551
2023-01-15T02:14:55,42.805,6.029,CST-1368DR,4417,4869,11715,01.150,551
2023-01-15T02:17:57,42.805,6.029,CST-1368DR,4417,4870,11719,01.148,551
2023-01-15T02:20:59,42.805,6.029,CST-1368DR,4417,4870,11719,01.148,551
2023-01-15T02:24:00,42.805,6.029,CST-1368DR,4417,4867,11711,01.151,551
2023-01-15T02:27:02,42.805,6.029,CST-1368DR,4417,4871,11722,01.147,551
2023-01-15T02:30:03,42.805,6.029,CST-1368DR,4417,4868,11714,01.150,551
2023-01-15T02:33:05,42.805,6.029,CST-1368DR,4417,4867,11711,01.151,551
2023-01-15T02:36:06,42.805,6.029,CST-1368DR,4417,4868,11714,01.150,551
2023-01-15T02:39:08,42.805,6.029,CST-1368DR,4417,4869,11717,01.149,551
2023-01-15T02:42:10,42.805,6.029,CST-1368DR,4417,4869,11716,01.149,551
2023-01-15T02:45:11,42.805,6.029,CST-1368DR,4417,4869,11717,01.149,551
2023-01-15T02:48:13,42.805,6.029,CST-1368DR,4417,4868,11713,01.150,551
2023-01-15T02:51:14,42.805,6.029,CST-1368DR,4417,4865,11706,01.153,551
2023-01-15T02:54:16,42.805,6.029,CST-1368DR,4417,4865,11707,01.152,551
2023-01-15T02:57:18,42.805,6.029,CST-1368DR,4417,4867,11711,01.151,551
2023-01-15T03:00:19,42.805,6.029,CST-1368DR,4417,4865,11705,01.153,551
2023-01-15T03:03:21,42.805,6.029,CST-1368DR,4417,4865,11706,01.153,551
2023-01-15T03:06:22,42.805,6.029,CST-1368DR,4417,4869,11716,01.149,551
2023-01-15T03:09:24,42.805,6.029,CST-1368DR,4417,4866,11710,01.151,551
2023-01-15T03:12:25,42.805,6.029,CST-1368DR,4417,4869,11717,01.149,551
2023-01-15T03:15:27,42.805,6.029,CST-1368DR,4417,4865,11706,01.153,550
2023-01-15T03:18:29,42.805,6.029,CST-1368DR,4417,4869,11716,01.149,551
2023-01-15T03:21:30,42.805,6.029,CST-1368DR,4417,4868,11713,01.150,551
2023-01-15T03:24:32,42.805,6.029,CST-1368DR,4417,4869,11716,01.149,551
2023-01-15T03:27:33,42.805,6.029,CST-1368DR,4417,4867,11710,01.151,551
2023-01-15T03:30:35,42.805,6.029,CST-1368DR,4417,4867,11712,01.151,551
2023-01-15T03:33:37,42.805,6.029,CST-1368DR,4417,4866,11708,01.152,551
2023-01-15T03:36:38,42.805,6.029,CST-1368DR,4417,4869,11715,01.150,551
2023-01-15T03:39:40,42.805,6.029,CST-1368DR,4417,4869,11716,01.149,551
2023-01-15T03:42:41,42.805,6.029,CST-1368DR,4416,4867,11714,01.150,551
2023-01-15T03:45:43,42.805,6.029,CST-1368DR,4417,4867,11712,01.151,551
2023-01-15T03:48:45,42.805,6.029,CST-1368DR,4417,4867,11710,01.151,551
2023-01-15T03:51:46,42.805,6.029,CST-1368DR,4417,4870,11719,01.148,551
2023-01-15T03:54:48,42.805,6.029,CST-1368DR,4417,4869,11716,01.149,551
2023-01-15T03:57:49,42.805,6.029,CST-1368DR,4417,4867,11712,01.151,551
2023-01-15T04:00:51,42.805,6.029,CST-1368DR,4417,4867,11711,01.151,551
2023-01-15T04:03:52,42.805,6.029,CST-1368DR,4416,4867,11714,01.150,551
2023-01-15T04:06:54,42.805,6.029,CST-1368DR,4416,4868,11716,01.149,551
2023-01-15T04:09:56,42.805,6.029,CST-1368DR,4416,4868,11716,01.149,551
2023-01-15T04:12:57,42.805,6.029,CST-1368DR,4417,4867,11712,01.151,551
2023-01-15T04:15:59,42.805,6.029,CST-1368DR,4417,4867,11710,01.151,551
2023-01-15T04:19:00,42.805,6.029,CST-1368DR,4417,4868,11713,01.150,551
2023-01-15T04:22:02,42.805,6.029,CST-1368DR,4417,4869,11715,01.150,551
2023-01-15T04:25:04,42.805,6.029,CST-1368DR,4416,4869,11718,01.149,551
2023-01-15T04:28:05,42.805,6.029,CST-1368DR,4417,4868,11713,01.150,551
2023-01-15T04:31:07,42.805,6.029,CST-1368DR,4416,4867,11715,01.150,551
2023-01-15T04:34:08,42.805,6.029,CST-1368DR,4416,4869,11718,01.149,551
2023-01-15T04:37:10,42.805,6.029,CST-1368DR,4416,4868,11716,01.149,551
2023-01-15T04:40:11,42.805,6.029,CST-1368DR,4417,4868,11713,01.150,551
2023-01-15T04:43:13,42.805,6.029,CST-1368DR,4417,4869,11717,01.149,551
2023-01-15T04:46:15,42.805,6.029,CST-1368DR,4417,4867,11711,01.151,551
2023-01-15T04:49:16,42.805,6.029,CST-1368DR,4417,4867,11710,01.151,551
2023-01-15T04:52:18,42.805,6.029,CST-1368DR,4416,4865,11709,01.152,551
2023-01-15T04:55:19,42.805,6.029,CST-1368DR,4417,4867,11711,01.151,551
2023-01-15T04:58:21,42.805,6.029,CST-1368DR,4417,4868,11713,01.150,551
2023-01-15T05:01:23,42.805,6.029,CST-1368DR,4417,4866,11708,01.152,551
2023-01-15T05:04:24,42.805,6.029,CST-1368DR,4417,4865,11705,01.153,551
2023-01-15T05:07:26,42.805,6.029,CST-1368DR,4416,4867,11715,01.150,551
2023-01-15T05:10:27,42.805,6.029,CST-1368DR,4417,4865,11707,01.152,551
2023-01-15T05:13:29,42.805,6.029,CST-1368DR,4416,4868,11716,01.149,551
2023-01-15T05:16:31,42.805,6.029,CST-1368DR,4416,4867,11713,01.150,551
2023-01-15T05:19:32,42.805,6.029,CST-1368DR,4417,4863,11702,01.154,551
2023-01-15T05:22:34,42.805,6.029,CST-1368DR,4416,4865,11709,01.152,551
2023-01-15T05:25:35,42.805,6.029,CST-1368DR,4416,4865,11709,01.152,551
2023-01-15T05:28:37,42.805,6.029,CST-1368DR,4416,4865,11709,01.152,551
2023-01-15T05:31:38,42.805,6.029,CST-1368DR,4416,4865,11709,01.152,551
2023-01-15T05:34:40,42.805,6.029,CST-1368DR,4416,4868,11715,01.150,551
2023-01-15T05:37:42,42.805,6.029,CST-1368DR,4416,4851,11676,01.163,551
2023-01-15T05:40:43,42.805,6.029,CST-1368DR,4416,4865,11709,01.152,551
2023-01-15T05:43:45,42.805,6.029,CST-1368DR,4416,4862,11701,01.154,551
2023-01-15T05:46:46,42.805,6.029,CST-1368DR,4417,4867,11710,01.151,551
2023-01-15T05:49:48,42.805,6.029,CST-1368DR,4416,4867,11713,01.150,551
2023-01-15T05:52:50,42.805,6.029,CST-1368DR,4416,4865,11708,01.152,551
2023-01-15T05:55:51,42.805,6.029,CST-1368DR,4417,4867,11711,01.151,551
2023-01-15T05:58:53,42.805,6.029,CST-1368DR,4416,4868,11717,01.149,551
2023-01-15T06:01:54,42.805,6.029,CST-1368DR,4416,4869,11719,01.148,551
2023-01-15T06:04:56,42.805,6.029,CST-1368DR,4416,4869,11718,01.149,551
2023-01-15T06:07:58,42.805,6.029,CST-1368DR,4416,4867,11713,01.150,551
2023-01-15T06:10:59,42.805,6.029,CST-1368DR,4416,4867,11713,01.150,551
2023-01-15T06:14:01,42.805,6.029,CST-1368DR,4416,4867,11713,01.150,551
2023-01-15T06:17:02,42.805,6.029,CST-1368DR,4416,4869,11719,01.148,551
2023-01-15T06:20:04,42.805,6.029,CST-1368DR,4416,4868,11715,01.150,551
2023-01-15T06:23:05,42.805,6.029,CST-1368DR,4416,4865,11710,01.151,551
2023-01-15T06:26:07,42.805,6.029,CST-1368DR,4416,4864,11707,01.152,551
2023-01-15T06:29:09,42.805,6.029,CST-1368DR,4416,4868,11717,01.149,551
2023-01-15T06:32:10,42.805,6.029,CST-1368DR,4416,4869,11718,01.149,551
2023-01-15T06:35:12,42.805,6.029,CST-1368DR,4416,4868,11717,01.149,551
2023-01-15T06:38:13,42.805,6.029,CST-1368DR,4416,4867,11713,01.150,551
2023-01-15T06:41:15,42.805,6.029,CST-1368DR,4416,4865,11710,01.151,551
2023-01-15T06:44:17,42.805,6.029,CST-1368DR,4416,4866,11712,01.151,551
2023-01-15T06:47:18,42.805,6.029,CST-1368DR,4416,4866,11712,01.151,551
2023-01-15T06:50:20,42.805,6.029,CST-1368DR,4416,4864,11706,01.153,551
2023-01-15T06:53:21,42.805,6.029,CST-1368DR,4416,4865,11708,01.152,551
2023-01-15T06:56:23,42.805,6.029,CST-1368DR,4416,4866,11710,01.151,551
2023-01-15T06:59:24,42.805,6.029,CST-1368DR,4416,4865,11710,01.151,551
2023-01-15T07:02:26,42.805,6.029,CST-1368DR,4416,4865,11708,01.152,551
2023-01-15T07:05:28,42.805,6.029,CST-1368DR,4416,4869,11718,01.149,551
2023-01-15T07:08:29,42.805,6.029,CST-1368DR,4416,4868,11716,01.149,551
2023-01-15T07:11:31,42.805,6.029,CST-1368DR,4416,4869,11719,01.148,551
2023-01-15T07:14:32,42.805,6.029,CST-1368DR,4416,4865,11709,01.152,551
2023-01-15T07:17:34,42.805,6.029,CST-1368DR,4416,4866,11710,01.151,551
2023-01-15T07:20:36,42.805,6.029,CST-1368DR,4416,4874,11730,01.145,551
2023-01-15T07:23:37,42.805,6.029,CST-1368DR,4416,4866,11711,01.151,551
2023-01-15T07:26:39,42.805,6.029,CST-1368DR,4416,4868,11716,01.149,551
2023-01-15T07:29:40,42.805,6.029,CST-1368DR,4416,4866,11712,01.151,551
2023-01-15T07:32:42,42.805,6.029,CST-1368DR,4416,4867,11714,01.150,551
2023-01-15T07:35:43,42.805,6.029,CST-1368DR,4416,4867,11715,01.150,551
2023-01-15T07:38:45,42.805,6.029,CST-1368DR,4416,4868,11715,01.150,551
2023-01-15T07:41:47,42.805,6.029,CST-1368DR,4416,4868,11717,01.149,551
2023-01-15T07:44:48,42.805,6.029,CST-1368DR,4416,4867,11714,01.150,551
2023-01-15T07:47:50,42.805,6.029,CST-1368DR,4416,4871,11722,01.147,551
2023-01-15T07:50:51,42.805,6.029,CST-1368DR,4416,4872,11726,01.146,551
2023-01-15T07:53:53,42.805,6.029,CST-1368DR,4416,4867,11713,01.150,551
2023-01-15T07:56:55,42.805,6.029,CST-1368DR,4416,4867,11715,01.150,551
2023-01-15T07:59:56,42.805,6.029,CST-1368DR,4416,4871,11724,01.147,551
2023-01-15T08:02:58,42.805,6.029,CST-1368DR,4416,4867,11715,01.150,551
2023-01-15T08:05:59,42.805,6.029,CST-1368DR,4416,4867,11713,01.150,551
2023-01-15T08:09:01,42.805,6.029,CST-1368DR,4416,4867,11715,01.150,551
2023-01-15T08:12:03,42.805,6.029,CST-1368DR,4416,4868,11717,01.149,551
2023-01-15T08:15:04,42.805,6.029,CST-1368DR,4416,4867,11714,01.150,551
2023-01-15T08:18:06,42.805,6.029,CST-1368DR,4416,4867,11715,01.150,551
2023-01-15T08:21:07,42.805,6.029,CST-1368DR,4416,4867,11713,01.150,551
2023-01-15T08:24:09,42.805,6.029,CST-1368DR,4416,4867,11713,01.150,551
2023-01-15T08:27:10,42.805,6.029,CST-1368DR,4416,4868,11716,01.149,551
2023-01-15T08:30:12,42.805,6.029,CST-1368DR,4416,4868,11716,01.149,551
2023-01-15T08:33:14,42.805,6.029,CST-1368DR,4416,4869,11718,01.149,551
2023-01-15T08:36:15,42.805,6.029,CST-1368DR,4416,4868,11716,01.149,551
2023-01-15T08:39:17,42.805,6.029,CST-1368DR,4416,4877,11739,01.142,551
2023-01-15T08:42:18,42.805,6.029,CST-1368DR,4416,4874,11730,01.145,551
2023-01-15T08:45:20,42.805,6.029,CST-1368DR,4416,4873,11728,01.145,551
2023-01-15T08:48:22,42.805,6.029,CST-1368DR,4416,4868,11716,01.149,551
2023-01-15T08:51:23,42.805,6.029,CST-1368DR,4416,4872,11725,01.146,551
2023-01-15T08:54:25,42.805,6.029,CST-1368DR,4416,4871,11724,01.147,551
2023-01-15T08:57:26,42.805,6.029,CST-1368DR,4416,4870,11722,01.147,551
2023-01-15T09:00:28,42.805,6.029,CST-1368DR,4416,4872,11727,01.146,551
2023-01-15T09:03:29,42.805,6.029,CST-1368DR,4416,4871,11724,01.147,551
2023-01-15T09:06:31,42.805,6.029,CST-1368DR,4416,4871,11722,01.147,551
2023-01-15T09:09:33,42.805,6.029,CST-1368DR,4416,4869,11718,01.149,551
2023-01-15T09:12:34,42.805,6.029,CST-1368DR,4416,4883,11752,01.137,551
2023-01-15T09:15:36,42.805,6.029,CST-1368DR,4416,4872,11727,01.146,551
2023-01-15T09:18:37,42.805,6.029,CST-1368DR,4416,4873,11729,01.145,551
2023-01-15T09:21:39,42.805,6.029,CST-1368DR,4416,4869,11719,01.148,551
2023-01-15T09:24:41,42.805,6.029,CST-1368DR,4416,4870,11721,01.148,551
2023-01-15T09:27:42,42.805,6.029,CST-1368DR,4416,4870,11722,01.147,551
2023-01-15T09:30:44,42.805,6.029,CST-1368DR,4416,4873,11728,01.145,551
2023-01-15T09:33:45,42.805,6.029,CST-1368DR,4416,4870,11722,01.147,551
2023-01-15T09:36:47,42.805,6.029,CST-1368DR,4416,4868,11717,01.149,551
2023-01-15T09:39:48,42.805,6.029,CST-1368DR,4416,4874,11730,01.145,551
2023-01-15T09:42:50,42.805,6.029,CST-1368DR,4416,4871,11723,01.147,551
2023-01-15T09:45:52,42.805,6.029,CST-1368DR,4416,4875,11733,01.144,551
2023-01-15T09:48:53,42.805,6.029,CST-1368DR,4416,4874,11730,01.145,551
2023-01-15T09:51:55,42.805,6.029,CST-1368DR,4416,4875,11732,01.144,551
2023-01-15T09:54:56,42.805,6.029,CST-1368DR,4416,4874,11731,01.144,551
2023-01-15T09:57:58,42.805,6.029,CST-1368DR,4416,4873,11728,01.145,551
2023-01-15T10:01:00,42.805,6.029,CST-1368DR,4416,4875,11734,01.143,551
2023-01-15T10:04:01,42.805,6.029,CST-1368DR,4416,4877,11738,01.142,551
2023-01-15T10:07:03,42.805,6.029,CST-1368DR,4416,4875,11734,01.143,551
2023-01-15T10:10:04,42.805,6.029,CST-1368DR,4416,4876,11734,01.143,551
2023-01-15T10:13:06,42.805,6.029,CST-1368DR,4416,4869,11719,01.148,551
2023-01-15T10:16:07,42.805,6.029,CST-1368DR,4416,4875,11734,01.143,551
2023-01-15T10:19:09,42.805,6.029,CST-1368DR,4416,4875,11733,01.144,551
2023-01-15T10:22:11,42.805,6.029,CST-1368DR,4416,4875,11734,01.143,551
2023-01-15T10:25:12,42.805,6.029,CST-1368DR,4416,4876,11734,01.143,551
2023-01-15T10:28:14,42.805,6.029,CST-1368DR,4416,4875,11734,01.143,551
2023-01-15T10:31:15,42.805,6.029,CST-1368DR,4416,4875,11733,01.144,551
2023-01-15T10:34:17,42.805,6.029,CST-1368DR,4416,4869,11718,01.149,551
2023-01-15T10:37:19,42.805,6.029,CST-1368DR,4416,4875,11732,01.144,551
2023-01-15T10:40:20,42.805,6.029,CST-1368DR,4416,4875,11733,01.144,551
2023-01-15T10:43:22,42.805,6.029,CST-1368DR,4416,4879,11742,01.140,551
2023-01-15T10:46:23,42.805,6.029,CST-1368DR,4416,4877,11738,01.142,551
2023-01-15T10:49:25,42.805,6.029,CST-1368DR,4416,4874,11731,01.144,551
2023-01-15T10:52:27,42.805,6.029,CST-1368DR,4416,4874,11730,01.145,551
2023-01-15T10:55:28,42.805,6.029,CST-1368DR,4416,4875,11733,01.144,551
2023-01-15T10:58:30,42.805,6.029,CST-1368DR,4416,4874,11731,01.144,551
2023-01-15T11:01:31,42.805,6.029,CST-1368DR,4416,4874,11730,01.145,551
2023-01-15T11:04:33,42.805,6.029,CST-1368DR,4416,4874,11731,01.144,551
2023-01-15T11:07:34,42.805,6.029,CST-1368DR,4416,4874,11731,01.144,551
2023-01-15T11:10:36,42.805,6.029,CST-1368DR,4416,4873,11727,01.146,551
2023-01-15T11:13:38,42.805,6.029,CST-1368DR,4416,4875,11733,01.144,551
2023-01-15T11:16:39,42.805,6.029,CST-1368DR,4416,4874,11731,01.144,551
2023-01-15T11:19:41,42.805,6.029,CST-1368DR,4416,4874,11730,01.145,551
2023-01-15T11:22:42,42.805,6.029,CST-1368DR,4416,4873,11729,01.145,551
2023-01-15T11:25:44,42.805,6.029,CST-1368DR,4416,4871,11724,01.147,551
2023-01-15T11:28:46,42.805,6.029,CST-1368DR,4416,4873,11729,01.145,551
2023-01-15T11:31:47,42.805,6.029,CST-1368DR,4416,4874,11731,01.144,551
2023-01-15T11:34:49,42.805,6.029,CST-1368DR,4416,4873,11728,01.145,551
2023-01-15T11:37:50,42.805,6.029,CST-1368DR,4416,4872,11727,01.146,551
2023-01-15T11:40:52,42.805,6.029,CST-1368DR,4416,4872,11725,01.146,551
2023-01-15T11:43:53,42.805,6.029,CST-1368DR,4416,4873,11728,01.145,551
2023-01-15T11:46:55,42.805,6.029,CST-1368DR,4416,4871,11724,01.147,551
2023-01-15T11:49:57,42.805,6.029,CST-1368DR,4416,4872,11725,01.146,551
2023-01-15T11:52:58,42.805,6.029,CST-1368DR,4416,4870,11721,01.148,551
2023-01-15T11:56:00,42.805,6.029,CST-1368DR,4416,4872,11725,01.146,551
2023-01-15T11:59:01,42.805,6.029,CST-1368DR,4416,4879,11743,01.140,551
2023-01-15T12:02:03,42.805,6.029,CST-1368DR,4416,4873,11727,01.146,551
2023-01-15T12:05:05,42.805,6.029,CST-1368DR,4416,4869,11718,01.149,551
2023-01-15T12:08:06,42.805,6.029,CST-1368DR,4416,4873,11728,01.145,551
2023-01-15T12:11:08,42.805,6.029,CST-1368DR,4416,4872,11725,01.146,551
2023-01-15T12:14:09,42.805,6.029,CST-1368DR,4416,4872,11725,01.146,551
2023-01-15T12:17:11,42.805,6.029,CST-1368DR,4416,4874,11730,01.145,551
2023-01-15T12:20:12,42.805,6.029,CST-1368DR,4416,4874,11731,01.144,551
2023-01-15T12:23:14,42.805,6.029,CST-1368DR,4416,4875,11734,01.143,551
2023-01-15T12:26:16,42.805,6.029,CST-1368DR,4416,4875,11733,01.144,551
2023-01-15T12:29:17,42.805,6.029,CST-1368DR,4416,4874,11731,01.144,551
2023-01-15T12:32:19,42.805,6.029,CST-1368DR,4416,4875,11734,01.143,551
2023-01-15T12:35:20,42.805,6.029,CST-1368DR,4416,4874,11731,01.144,551
2023-01-15T12:38:22,42.805,6.029,CST-1368DR,4416,4875,11734,01.143,551
2023-01-15T12:41:24,42.805,6.029,CST-1368DR,4416,4877,11737,01.142,551
2023-01-15T12:44:25,42.805,6.029,CST-1368DR,4416,4878,11739,01.142,551
2023-01-15T12:47:27,42.805,6.029,CST-1368DR,4416,4877,11737,01.142,551
2023-01-15T12:50:28,42.805,6.029,CST-1368DR,4416,4877,11737,01.142,551
2023-01-15T12:53:30,42.805,6.029,CST-1368DR,4416,4876,11736,01.143,551
2023-01-15T12:56:31,42.805,6.029,CST-1368DR,4416,4875,11734,01.143,551
2023-01-15T12:59:33,42.805,6.029,CST-1368DR,4416,4875,11734,01.143,551
2023-01-15T13:02:35,42.805,6.029,CST-1368DR,4416,4877,11737,01.142,551
2023-01-15T13:05:36,42.805,6.029,CST-1368DR,4416,4875,11734,01.143,551
2023-01-15T13:08:38,42.805,6.029,CST-1368DR,4416,4875,11733,01.144,551
2023-01-15T13:11:39,42.805,6.029,CST-1368DR,4416,4875,11733,01.144,551
2023-01-15T13:14:41,42.805,6.029,CST-1368DR,4416,4875,11732,01.144,551
2023-01-15T13:17:43,42.805,6.029,CST-1368DR,4416,4875,11733,01.144,551
2023-01-15T13:20:44,42.805,6.029,CST-1368DR,4416,4875,11733,01.144,551
2023-01-15T13:23:46,42.805,6.029,CST-1368DR,4416,4874,11731,01.144,551
2023-01-15T13:26:47,42.805,6.029,CST-1368DR,4416,4874,11730,01.145,551
2023-01-15T13:29:49,42.805,6.029,CST-1368DR,4416,4874,11730,01.145,551
2023-01-15T13:32:51,42.805,6.029,CST-1368DR,4416,4873,11729,01.145,551
2023-01-15T13:35:52,42.805,6.029,CST-1368DR,4416,4874,11730,01.145,551
2023-01-15T13:38:54,42.805,6.029,CST-1368DR,4416,4872,11725,01.146,551
2023-01-15T13:41:55,42.805,6.029,CST-1368DR,4416,4872,11725,01.146,551
2023-01-15T13:44:57,42.805,6.029,CST-1368DR,4416,4873,11728,01.145,551
2023-01-15T13:47:58,42.805,6.029,CST-1368DR,4416,4874,11731,01.144,551
2023-01-15T13:51:00,42.805,6.029,CST-1368DR,4416,4871,11724,01.147,551
2023-01-15T13:54:02,42.805,6.029,CST-1368DR,4416,4874,11730,01.145,551
2023-01-15T13:57:03,42.805,6.029,CST-1368DR,4416,4874,11730,01.145,551
2023-01-15T14:00:05,42.805,6.029,CST-1368DR,4416,4869,11719,01.148,551
2023-01-15T14:03:06,42.805,6.029,CST-1368DR,4416,4873,11727,01.146,551
2023-01-15T14:06:08,42.805,6.029,CST-1368DR,4416,4872,11727,01.146,551
2023-01-15T14:09:10,42.805,6.029,CST-1368DR,4416,4873,11728,01.145,551
2023-01-15T14:12:11,42.805,6.029,CST-1368DR,4416,4874,11731,01.144,551
2023-01-15T14:15:13,42.805,6.029,CST-1368DR,4416,4872,11726,01.146,551
2023-01-15T14:18:14,42.805,6.029,CST-1368DR,4416,4872,11725,01.146,551
2023-01-15T14:21:16,42.805,6.029,CST-1368DR,4416,4874,11731,01.144,551
2023-01-15T14:24:17,42.805,6.029,CST-1368DR,4416,4874,11731,01.144,551
2023-01-15T14:27:19,42.805,6.029,CST-1368DR,4416,4873,11728,01.145,551
2023-01-15T14:30:21,42.805,6.029,CST-1368DR,4416,4874,11730,01.145,551
2023-01-15T14:33:22,42.805,6.029,CST-1368DR,4416,4873,11729,01.145,551
2023-01-15T14:36:24,42.805,6.029,CST-1368DR,4416,4874,11731,01.144,551
2023-01-15T14:39:25,42.805,6.029,CST-1368DR,4416,4875,11732,01.144,551
2023-01-15T14:42:27,42.805,6.029,CST-1368DR,4416,4874,11730,01.145,551
2023-01-15T14:45:29,42.805,6.029,CST-1368DR,4416,4871,11724,01.147,551
2023-01-15T14:48:30,42.805,6.029,CST-1368DR,4416,4872,11725,01.146,551
2023-01-15T14:51:32,42.805,6.029,CST-1368DR,4416,4872,11725,01.146,551
2023-01-15T14:54:33,42.805,6.029,CST-1368DR,4416,4876,11736,01.143,551
2023-01-15T14:57:35,42.805,6.029,CST-1368DR,4416,4873,11728,01.145,551
2023-01-15T15:00:37,42.805,6.029,CST-1368DR,4416,4872,11726,01.146,551
2023-01-15T15:03:38,42.805,6.029,CST-1368DR,4416,4873,11727,01.146,551
2023-01-15T15:06:40,42.805,6.029,CST-1368DR,4416,4872,11726,01.146,551
2023-01-15T15:09:41,42.805,6.029,CST-1368DR,4416,4872,11726,01.146,551
2023-01-15T15:12:43,42.805,6.029,CST-1368DR,4416,4874,11730,01.145,551
2023-01-15T15:15:44,42.805,6.029,CST-1368DR,4416,4875,11732,01.144,551
2023-01-15T15:18:46,42.805,6.029,CST-1368DR,4416,4872,11726,01.146,551
2023-01-15T15:21:48,42.805,6.029,CST-1368DR,4416,4873,11728,01.145,551
2023-01-15T15:24:49,42.805,6.029,CST-1368DR,4416,4873,11727,01.146,551
2023-01-15T15:27:51,42.805,6.029,CST-1368DR,4416,4879,11743,01.140,551
2023-01-15T15:30:52,42.805,6.029,CST-1368DR,4416,4873,11727,01.146,551
2023-01-15T15:33:54,42.805,6.029,CST-1368DR,4416,4872,11727,01.146,551
2023-01-15T15:36:56,42.805,6.029,CST-1368DR,4416,4874,11730,01.145,551
2023-01-15T15:39:57,42.805,6.029,CST-1368DR,4416,4872,11727,01.146,551
2023-01-15T15:42:59,42.805,6.029,CST-1368DR,4416,4875,11733,01.144,551
2023-01-15T15:46:00,42.805,6.029,CST-1368DR,4416,4874,11730,01.145,551
2023-01-15T15:49:02,42.805,6.029,CST-1368DR,4416,4871,11724,01.147,551
2023-01-15T15:52:03,42.805,6.029,CST-1368DR,4416,4876,11735,01.143,551
2023-01-15T15:55:05,42.805,6.029,CST-1368DR,4416,4873,11728,01.145,551
2023-01-15T15:58:07,42.805,6.029,CST-1368DR,4416,4874,11731,01.144,551
2023-01-15T16:01:08,42.805,6.029,CST-1368DR,4416,4873,11729,01.145,551
2023-01-15T16:04:10,42.805,6.029,CST-1368DR,4416,4873,11729,01.145,551
2023-01-15T16:07:11,42.805,6.029,CST-1368DR,4416,4875,11734,01.143,551
2023-01-15T16:10:13,42.805,6.029,CST-1368DR,4416,4875,11733,01.144,551
2023-01-15T16:13:15,42.805,6.029,CST-1368DR,4416,4875,11732,01.144,551
2023-01-15T16:16:16,42.805,6.029,CST-1368DR,4416,4875,11734,01.143,551
2023-01-15T16:19:18,42.805,6.029,CST-1368DR,4416,4875,11733,01.144,551
2023-01-15T16:22:19,42.805,6.029,CST-1368DR,4416,4876,11736,01.143,551
2023-01-15T16:25:21,42.805,6.029,CST-1368DR,4416,4873,11729,01.145,551
2023-01-15T16:28:22,42.805,6.029,CST-1368DR,4416,4875,11734,01.143,551
2023-01-15T16:31:24,42.805,6.029,CST-1368DR,4416,4876,11736,01.143,551
2023-01-15T16:34:26,42.805,6.029,CST-1368DR,4416,4875,11733,01.144,551
2023-01-15T16:37:27,42.805,6.029,CST-1368DR,4416,4876,11734,01.143,551